| time (UTC) | temp C | wind direction | speed KPH | gust KPH | rain 1hr cm | rain 24hr cm | rain mn cm | humidity % | barometer mb |
| 20260503072626 | 18 | 223 | 19.3 | 25.7 | 0.00 | 0.00 | 0.00 | 54 | 1001.0 |
| 20260503072426 | 18 | 229 | 17.7 | 22.5 | 0.00 | 0.00 | 0.00 | 54 | 1001.0 |
| 20260503072226 | 18 | 233 | 19.3 | 22.5 | 0.00 | 0.00 | 0.00 | 54 | 1001.0 |
| 20260503072026 | 18 | 232 | 14.5 | 22.5 | 0.00 | 0.00 | 0.00 | 54 | 1001.0 |
| 20260503071826 | 18 | 221 | 14.5 | 19.3 | 0.00 | 0.00 | 0.00 | 54 | 1001.0 |
| 20260503071626 | 18 | 230 | 17.7 | 20.9 | 0.00 | 0.00 | 0.00 | 54 | 1001.0 |
| 20260503071426 | 18 | 230 | 17.7 | 22.5 | 0.00 | 0.00 | 0.00 | 54 | 1001.0 |
| 20260503071226 | 18 | 224 | 19.3 | 24.1 | 0.00 | 0.00 | 0.00 | 55 | 1001.0 |
| 20260503071026 | 18 | 215 | 17.7 | 20.9 | 0.00 | 0.00 | 0.00 | 55 | 1000.9 |
| 20260503070826 | 18 | 217 | 16.1 | 20.9 | 0.00 | 0.00 | 0.00 | 55 | 1000.9 |
| 20260503070625 | 18 | 219 | 12.9 | 17.7 | 0.00 | 0.00 | 0.00 | 55 | 1000.9 |
| 20260503070425 | 17 | 221 | 12.9 | 16.1 | 0.00 | 0.00 | 0.00 | 55 | 1000.9 |
| 20260503070225 | 17 | 215 | 12.9 | 16.1 | 0.00 | 0.00 | 0.00 | 55 | 1000.9 |
| 20260503060223 | 15 | 218 | 11.3 | 12.9 | 0.00 | 0.00 | 0.00 | 59 | 1000.9 |
| 20260503055023 | 14 | 217 | 11.3 | 14.5 | 0.00 | 0.00 | 0.00 | 59 | 1001.0 |
| 20260503054823 | 14 | 218 | 12.9 | 16.1 | 0.00 | 0.00 | 0.00 | 59 | 1001.0 |
| 20260503054414 | 14 | 225 | 11.3 | 12.9 | 0.00 | 0.00 | 0.00 | 59 | 1001.0 |
| 20260503054214 | 14 | 221 | 11.3 | 12.9 | 0.00 | 0.00 | 0.00 | 59 | 1001.0 |
| 20260503054014 | 14 | 220 | 11.3 | 12.9 | 0.00 | 0.00 | 0.00 | 59 | 1001.0 |
| 20260503053814 | 13 | 218 | 9.7 | 12.9 | 0.00 | 0.00 | 0.00 | 59 | 1001.1 |
| 20260503053614 | 13 | 218 | 12.9 | 16.1 | 0.00 | 0.00 | 0.00 | 59 | 1001.2 |
| 20260503053414 | 13 | 223 | 12.9 | 16.1 | 0.00 | 0.00 | 0.00 | 59 | 1001.2 |
| 20260503053214 | 13 | 225 | 12.9 | 16.1 | 0.00 | 0.00 | 0.00 | 60 | 1001.2 |
| 20260503053013 | 13 | 223 | 12.9 | 16.1 | 0.00 | 0.00 | 0.00 | 60 | 1001.1 |
| 20260503052813 | 13 | 214 | 11.3 | 14.5 | 0.00 | 0.00 | 0.00 | 59 | 1001.0 |
| 20260503052613 | 13 | 203 | 11.3 | 14.5 | 0.00 | 0.00 | 0.00 | 60 | 1001.1 |
| 20260503052413 | 13 | 202 | 12.9 | 16.1 | 0.00 | 0.00 | 0.00 | 59 | 1001.1 |
| 20260503052213 | 13 | 203 | 12.9 | 17.7 | 0.00 | 0.00 | 0.00 | 60 | 1001.1 |
| 20260503052013 | 13 | 201 | 12.9 | 16.1 | 0.00 | 0.00 | 0.00 | 60 | 1001.0 |
| 20260503051814 | 13 | 202 | 11.3 | 14.5 | 0.00 | 0.00 | 0.00 | 60 | 1001.1 |
| 20260503051613 | 13 | 204 | 9.7 | 12.9 | 0.00 | 0.00 | 0.00 | 60 | 1001.1 |
| 20260503051413 | 13 | 206 | 11.3 | 12.9 | 0.00 | 0.00 | 0.00 | 60 | 1001.1 |
| 20260503051213 | 13 | 207 | 11.3 | 12.9 | 0.00 | 0.00 | 0.00 | 60 | 1001.1 |
| 20260503051013 | 13 | 214 | 8.0 | 11.3 | 0.00 | 0.00 | 0.00 | 60 | 1001.0 |
| 20260503050813 | 13 | 210 | 8.0 | 9.7 | 0.00 | 0.00 | 0.00 | 60 | 1001.0 |
| 20260503050613 | 13 | 215 | 6.4 | 9.7 | 0.00 | 0.00 | 0.00 | 61 | 1001.0 |
| 20260503050413 | 13 | 221 | 6.4 | 8.0 | 0.00 | 0.00 | 0.00 | 61 | 1001.0 |
| 20260503050213 | 12 | 222 | 6.4 | 6.4 | 0.00 | 0.00 | 0.00 | 61 | 1001.0 |
| 20260503050013 | 12 | 222 | 6.4 | 6.4 | 0.00 | 0.00 | 0.00 | 61 | 1001.1 |
| 20260503045812 | 12 | 222 | 6.4 | 9.7 | 0.00 | 0.00 | 0.00 | 61 | 1001.1 |
| 20260503045612 | 12 | 222 | 6.4 | 9.7 | 0.00 | 0.00 | 0.00 | 61 | 1001.0 |
| 20260503045412 | 12 | 221 | 6.4 | 8.0 | 0.00 | 0.00 | 0.00 | 61 | 1001.0 |
| 20260503045212 | 12 | 223 | 4.8 | 8.0 | 0.00 | 0.00 | 0.00 | 61 | 1001.0 |
| 20260503045012 | 12 | 224 | 4.8 | 4.8 | 0.00 | 0.00 | 0.00 | 61 | 1001.0 |
| 20260503044812 | 12 | 225 | 4.8 | 6.4 | 0.00 | 0.00 | 0.00 | 61 | 1001.0 |
| 20260503044612 | 12 | 220 | 4.8 | 6.4 | 0.00 | 0.00 | 0.00 | 61 | 1001.0 |
| 20260503044412 | 12 | 222 | 4.8 | 8.0 | 0.00 | 0.00 | 0.00 | 61 | 1000.9 |
| 20260503044212 | 12 | 224 | 4.8 | 6.4 | 0.00 | 0.00 | 0.00 | 61 | 1000.9 |
| 20260503044012 | 12 | 222 | 4.8 | 6.4 | 0.00 | 0.00 | 0.00 | 61 | 1000.9 |
| 20260503043812 | 11 | 219 | 4.8 | 6.4 | 0.00 | 0.00 | 0.00 | 61 | 1000.9 |
| 20260503043612 | 11 | 218 | 4.8 | 6.4 | 0.00 | 0.00 | 0.00 | 61 | 1000.8 |
| 20260503043412 | 11 | 227 | 4.8 | 6.4 | 0.00 | 0.00 | 0.00 | 61 | 1000.9 |
| 20260503043212 | 11 | 230 | 4.8 | 6.4 | 0.00 | 0.00 | 0.00 | 61 | 1000.9 |
| 20260503043012 | 11 | 225 | 4.8 | 6.4 | 0.00 | 0.00 | 0.00 | 61 | 1000.9 |
| 20260503042811 | 11 | 225 | 4.8 | 6.4 | 0.00 | 0.00 | 0.00 | 61 | 1000.9 |
| 20260503042611 | 11 | 224 | 4.8 | 4.8 | 0.00 | 0.00 | 0.00 | 61 | 1000.9 |
| 20260503042411 | 11 | 222 | 4.8 | 6.4 | 0.00 | 0.00 | 0.00 | 61 | 1000.8 |
| 20260503042211 | 11 | 222 | 4.8 | 6.4 | 0.00 | 0.00 | 0.00 | 61 | 1000.8 |
| 20260503042011 | 11 | 218 | 3.2 | 4.8 | 0.00 | 0.00 | 0.00 | 62 | 1000.8 |
| 20260503041811 | 11 | 214 | 1.6 | 3.2 | 0.00 | 0.00 | 0.00 | 61 | 1000.8 |
| 20260503041611 | 10 | 214 | 1.6 | 3.2 | 0.00 | 0.00 | 0.00 | 61 | 1000.8 |
| 20260503041411 | 10 | 215 | 1.6 | 3.2 | 0.00 | 0.00 | 0.00 | 61 | 1000.9 |
| 20260503041211 | 10 | 215 | 3.2 | 3.2 | 0.00 | 0.00 | 0.00 | 61 | 1000.9 |
| 20260503041011 | 10 | 214 | 3.2 | 3.2 | 0.00 | 0.00 | 0.00 | 61 | 1001.0 |
| 20260503040811 | 10 | 214 | 1.6 | 3.2 | 0.00 | 0.00 | 0.00 | 60 | 1001.0 |
| 20260503040611 | 10 | 214 | 1.6 | 3.2 | 0.00 | 0.00 | 0.00 | 60 | 1001.0 |
| 20260503040411 | 10 | 214 | 1.6 | 3.2 | 0.00 | 0.00 | 0.00 | 60 | 1001.0 |
| 20260503040211 | 10 | 214 | 3.2 | 3.2 | 0.00 | 0.00 | 0.00 | 60 | 1001.0 |
| 20260503040011 | 10 | 214 | 3.2 | 4.8 | 0.00 | 0.00 | 0.00 | 60 | 1001.0 |
| 20260503035811 | 10 | 214 | 3.2 | 3.2 | 0.00 | 0.00 | 0.00 | 60 | 1001.0 |
| 20260503035610 | 11 | 214 | 3.2 | 4.8 | 0.00 | 0.00 | 0.00 | 60 | 1001.0 |
| 20260503035410 | 11 | 209 | 4.8 | 6.4 | 0.00 | 0.00 | 0.00 | 60 | 1000.9 |
| 20260503035210 | 11 | 208 | 4.8 | 6.4 | 0.00 | 0.00 | 0.00 | 60 | 1000.9 |
| 20260503035010 | 11 | 208 | 4.8 | 6.4 | 0.00 | 0.00 | 0.00 | 60 | 1000.8 |
| 20260503034810 | 11 | 208 | 4.8 | 6.4 | 0.00 | 0.00 | 0.00 | 60 | 1000.8 |
| 20260503034610 | 11 | 208 | 6.4 | 6.4 | 0.00 | 0.00 | 0.00 | 60 | 1000.8 |
| 20260503034410 | 11 | 208 | 4.8 | 6.4 | 0.00 | 0.00 | 0.00 | 60 | 1000.8 |
| 20260503034210 | 11 | 208 | 4.8 | 6.4 | 0.00 | 0.00 | 0.00 | 60 | 1000.8 |
| 20260503034010 | 10 | 208 | 4.8 | 6.4 | 0.00 | 0.00 | 0.00 | 61 | 1000.9 |
| 20260503033810 | 10 | 208 | 4.8 | 6.4 | 0.00 | 0.00 | 0.00 | 61 | 1001.0 |
| 20260503033610 | 10 | 209 | 6.4 | 6.4 | 0.00 | 0.00 | 0.00 | 61 | 1001.1 |
| 20260503033410 | 10 | 213 | 4.8 | 6.4 | 0.00 | 0.00 | 0.00 | 61 | 1001.2 |
| 20260503033210 | 10 | 214 | 4.8 | 4.8 | 0.00 | 0.00 | 0.00 | 61 | 1001.3 |
| 20260503033010 | 10 | 214 | 4.8 | 4.8 | 0.00 | 0.00 | 0.00 | 61 | 1001.2 |
| 20260503032810 | 10 | 214 | 4.8 | 4.8 | 0.00 | 0.00 | 0.00 | 61 | 1001.2 |
| 20260503032609 | 10 | 214 | 3.2 | 4.8 | 0.00 | 0.00 | 0.00 | 61 | 1001.2 |
| 20260503032409 | 10 | 214 | 3.2 | 4.8 | 0.00 | 0.00 | 0.00 | 61 | 1001.2 |
| 20260503032209 | 9 | 214 | 3.2 | 4.8 | 0.00 | 0.00 | 0.00 | 62 | 1001.1 |
| 20260503032009 | 9 | 214 | 4.8 | 6.4 | 0.00 | 0.00 | 0.00 | 62 | 1001.1 |
| 20260503031809 | 8 | 214 | 6.4 | 6.4 | 0.00 | 0.00 | 0.00 | 62 | 1001.3 |
| 20260503031610 | 8 | 214 | 4.8 | 6.4 | 0.00 | 0.00 | 0.00 | 62 | 1001.4 |
| 20260503031409 | 8 | 215 | 3.2 | 4.8 | 0.00 | 0.00 | 0.00 | 62 | 1001.4 |
| 20260503031208 | 8 | 219 | 3.2 | 4.8 | 0.00 | 0.00 | 0.00 | 62 | 1001.4 |
| 20260503031001 | 8 | 219 | 4.8 | 4.8 | 0.00 | 0.00 | 0.00 | 63 | 1001.5 |
| 20260503030800 | 7 | 219 | 4.8 | 4.8 | 0.00 | 0.00 | 0.00 | 63 | 1001.6 |
| 20260503030601 | 7 | 219 | 3.2 | 4.8 | 0.00 | 0.00 | 0.00 | 62 | 1001.6 |
| 20260503030400 | 7 | 219 | 1.6 | 3.2 | 0.00 | 0.00 | 0.00 | 63 | 1001.6 |
| 20260503030200 | 7 | 219 | 1.6 | 3.2 | 0.00 | 0.00 | 0.00 | 63 | 1001.6 |
| 20260503030000 | 7 | 219 | 1.6 | 3.2 | 0.00 | 0.00 | 0.00 | 63 | 1001.6 |
| 20260503025800 | 7 | 219 | 0.0 | 1.6 | 0.00 | 0.00 | 0.00 | 62 | 1001.7 |
| 20260503025601 | 7 | 219 | 0.0 | 0.0 | 0.00 | 0.00 | 0.00 | 62 | 1001.7 |
| 20260503025400 | 7 | 219 | 0.0 | 0.0 | 0.00 | 0.00 | 0.00 | 62 | 1001.6 |
| 20260503025200 | 7 | 219 | 0.0 | 0.0 | 0.00 | 0.00 | 0.00 | 62 | 1001.6 |
| 20260503025000 | 7 | 219 | 0.0 | 0.0 | 0.00 | 0.00 | 0.00 | 62 | 1001.6 |
| 20260503024800 | 7 | 219 | 0.0 | 0.0 | 0.00 | 0.00 | 0.00 | 62 | 1001.6 |
| 20260503024600 | 7 | 219 | 0.0 | 0.0 | 0.00 | 0.00 | 0.00 | 62 | 1001.6 |
| 20260503024400 | 7 | 219 | 0.0 | 0.0 | 0.00 | 0.00 | 0.00 | 62 | 1001.6 |
| 20260503024200 | 7 | 219 | 0.0 | 0.0 | 0.00 | 0.00 | 0.00 | 62 | 1001.6 |
| 20260503024000 | 7 | 219 | 0.0 | 0.0 | 0.00 | 0.00 | 0.00 | 62 | 1001.6 |
| 20260503023759 | 7 | 219 | 0.0 | 0.0 | 0.00 | 0.00 | 0.00 | 62 | 1001.7 |
| 20260503023600 | 7 | 219 | 0.0 | 0.0 | 0.00 | 0.00 | 0.00 | 62 | 1001.7 |
| 20260503023359 | 7 | 219 | 0.0 | 0.0 | 0.00 | 0.00 | 0.00 | 62 | 1001.7 |
| 20260503023159 | 7 | 219 | 0.0 | 0.0 | 0.00 | 0.00 | 0.00 | 62 | 1001.7 |
| 20260503022959 | 7 | 219 | 0.0 | 0.0 | 0.00 | 0.00 | 0.00 | 62 | 1001.7 |
| 20260503022759 | 7 | 219 | 0.0 | 0.0 | 0.00 | 0.00 | 0.00 | 62 | 1001.7 |
| 20260503022559 | 7 | 219 | 0.0 | 0.0 | 0.00 | 0.00 | 0.00 | 62 | 1001.8 |
| 20260503022359 | 7 | 219 | 0.0 | 0.0 | 0.00 | 0.00 | 0.00 | 62 | 1001.8 |
| 20260503022159 | 7 | 219 | 0.0 | 0.0 | 0.00 | 0.00 | 0.00 | 62 | 1001.8 |
| 20260503021958 | 7 | 219 | 0.0 | 0.0 | 0.00 | 0.00 | 0.00 | 62 | 1001.8 |
| 20260503021758 | 7 | 219 | 0.0 | 0.0 | 0.00 | 0.00 | 0.00 | 62 | 1001.8 |
| 20260503021559 | 7 | 219 | 0.0 | 0.0 | 0.00 | 0.00 | 0.00 | 62 | 1001.8 |
| 20260503021359 | 7 | 219 | 0.0 | 0.0 | 0.00 | 0.00 | 0.00 | 62 | 1001.8 |
| 20260503021159 | 7 | 219 | 0.0 | 0.0 | 0.00 | 0.00 | 0.00 | 62 | 1001.8 |
| 20260503020959 | 7 | 219 | 0.0 | 0.0 | 0.00 | 0.00 | 0.00 | 62 | 1001.8 |
| 20260503020758 | 7 | 219 | 0.0 | 0.0 | 0.00 | 0.00 | 0.00 | 62 | 1001.8 |
| 20260503020558 | 7 | 219 | 0.0 | 0.0 | 0.00 | 0.00 | 0.00 | 62 | 1001.9 |
| 20260503020358 | 7 | 219 | 0.0 | 0.0 | 0.00 | 0.00 | 0.00 | 62 | 1001.9 |
| 20260503020158 | 7 | 219 | 0.0 | 0.0 | 0.00 | 0.00 | 0.00 | 62 | 1001.9 |
| 20260503015958 | 7 | 219 | 0.0 | 0.0 | 0.00 | 0.00 | 0.00 | 62 | 1001.9 |
| 20260503015758 | 7 | 219 | 0.0 | 0.0 | 0.00 | 0.00 | 0.00 | 62 | 1001.9 |
| 20260503015558 | 7 | 219 | 0.0 | 0.0 | 0.00 | 0.00 | 0.00 | 62 | 1001.9 |
| 20260503015358 | 7 | 219 | 0.0 | 0.0 | 0.00 | 0.00 | 0.00 | 62 | 1001.9 |
| 20260503015158 | 7 | 219 | 0.0 | 0.0 | 0.00 | 0.00 | 0.00 | 62 | 1001.9 |
| 20260503014958 | 7 | 219 | 0.0 | 0.0 | 0.00 | 0.00 | 0.00 | 62 | 1001.8 |
| 20260503014758 | 7 | 219 | 0.0 | 0.0 | 0.00 | 0.00 | 0.00 | 62 | 1001.9 |
| 20260503014558 | 7 | 219 | 0.0 | 0.0 | 0.00 | 0.00 | 0.00 | 62 | 1001.8 |
| 20260503014358 | 7 | 219 | 0.0 | 0.0 | 0.00 | 0.00 | 0.00 | 62 | 1001.8 |
| 20260503014158 | 7 | 219 | 0.0 | 0.0 | 0.00 | 0.00 | 0.00 | 62 | 1001.8 |
| 20260503013958 | 7 | 219 | 0.0 | 0.0 | 0.00 | 0.00 | 0.00 | 62 | 1001.8 |
| 20260503013758 | 7 | 219 | 0.0 | 0.0 | 0.00 | 0.00 | 0.00 | 62 | 1001.8 |
| 20260503013558 | 6 | 219 | 0.0 | 0.0 | 0.00 | 0.00 | 0.00 | 62 | 1001.8 |
| 20260503013358 | 6 | 219 | 0.0 | 0.0 | 0.00 | 0.00 | 0.00 | 62 | 1001.8 |
| 20260503013158 | 7 | 219 | 0.0 | 0.0 | 0.00 | 0.00 | 0.00 | 62 | 1001.9 |
| 20260503012958 | 7 | 219 | 0.0 | 0.0 | 0.00 | 0.00 | 0.00 | 62 | 1001.9 |
| 20260503012757 | 7 | 219 | 0.0 | 0.0 | 0.00 | 0.00 | 0.00 | 62 | 1001.9 |
| 20260503012600 | 7 | 219 | 0.0 | 0.0 | 0.00 | 0.00 | 0.00 | 61 | 1001.9 |
| 20260503012358 | 7 | 219 | 0.0 | 0.0 | 0.00 | 0.00 | 0.00 | 61 | 1001.9 |
| 20260503012157 | 7 | 219 | 0.0 | 0.0 | 0.00 | 0.00 | 0.00 | 61 | 1001.9 |
| 20260503011957 | 7 | 219 | 0.0 | 0.0 | 0.00 | 0.00 | 0.00 | 61 | 1001.8 |
| 20260503011757 | 7 | 219 | 0.0 | 0.0 | 0.00 | 0.00 | 0.00 | 61 | 1001.8 |
| 20260503011557 | 7 | 219 | 0.0 | 0.0 | 0.00 | 0.00 | 0.00 | 61 | 1001.8 |
| 20260503011357 | 7 | 219 | 0.0 | 0.0 | 0.00 | 0.00 | 0.00 | 61 | 1001.8 |
| 20260503011157 | 7 | 219 | 0.0 | 0.0 | 0.00 | 0.00 | 0.00 | 61 | 1001.8 |
| 20260503010957 | 7 | 219 | 0.0 | 0.0 | 0.00 | 0.00 | 0.00 | 61 | 1001.8 |
| 20260503010757 | 7 | 219 | 0.0 | 0.0 | 0.00 | 0.00 | 0.00 | 61 | 1001.8 |
| 20260503010557 | 7 | 219 | 0.0 | 0.0 | 0.00 | 0.00 | 0.00 | 61 | 1001.8 |
| 20260503010357 | 7 | 219 | 0.0 | 0.0 | 0.00 | 0.00 | 0.00 | 61 | 1001.7 |
| 20260503010157 | 7 | 219 | 0.0 | 0.0 | 0.00 | 0.00 | 0.00 | 61 | 1001.7 |
| 20260503005957 | 7 | 219 | 0.0 | 0.0 | 0.00 | 0.00 | 0.00 | 61 | 1001.8 |
| 20260503005757 | 7 | 219 | 0.0 | 1.6 | 0.00 | 0.00 | 0.00 | 61 | 1001.8 |
| 20260503005557 | 7 | 219 | 0.0 | 1.6 | 0.00 | 0.00 | 0.00 | 61 | 1001.8 |
| 20260503005357 | 7 | 219 | 1.6 | 1.6 | 0.00 | 0.00 | 0.00 | 61 | 1001.9 |
| 20260503005157 | 7 | 219 | 1.6 | 1.6 | 0.00 | 0.00 | 0.00 | 61 | 1001.9 |
| 20260503004956 | 7 | 219 | 1.6 | 1.6 | 0.00 | 0.00 | 0.00 | 60 | 1001.9 |
| 20260503004756 | 7 | 219 | 1.6 | 1.6 | 0.00 | 0.00 | 0.00 | 60 | 1001.9 |
| 20260503004556 | 7 | 219 | 0.0 | 1.6 | 0.00 | 0.00 | 0.00 | 60 | 1001.9 |
| 20260503004356 | 7 | 219 | 0.0 | 0.0 | 0.00 | 0.00 | 0.00 | 60 | 1001.9 |
| 20260503004156 | 7 | 219 | 0.0 | 0.0 | 0.00 | 0.00 | 0.00 | 60 | 1001.8 |
| 20260503003956 | 7 | 219 | 0.0 | 1.6 | 0.00 | 0.00 | 0.00 | 60 | 1001.8 |
| 20260503003805 | 7 | 221 | 1.6 | 1.6 | 0.00 | 0.00 | 0.00 | 60 | 1001.8 |
| 20260503003351 | 8 | 219 | 1.6 | 1.6 | 0.00 | 0.00 | 0.00 | 60 | 1001.8 |
| 20260503003151 | 8 | 219 | 0.0 | 1.6 | 0.00 | 0.00 | 0.00 | 60 | 1001.8 |
| 20260503002951 | 8 | 219 | 0.0 | 1.6 | 0.00 | 0.00 | 0.00 | 60 | 1001.8 |
| 20260503002751 | 8 | 219 | 1.6 | 1.6 | 0.00 | 0.00 | 0.00 | 60 | 1001.8 |
| 20260503002551 | 8 | 219 | 1.6 | 1.6 | 0.00 | 0.00 | 0.00 | 59 | 1001.8 |
| 20260503002351 | 8 | 219 | 1.6 | 3.2 | 0.00 | 0.00 | 0.00 | 59 | 1001.8 |
| 20260503002151 | 8 | 219 | 0.0 | 0.0 | 0.00 | 0.00 | 0.00 | 59 | 1001.8 |
| 20260503001950 | 8 | 219 | 0.0 | 0.0 | 0.00 | 0.00 | 0.00 | 59 | 1001.8 |
| 20260503001750 | 8 | 219 | 0.0 | 0.0 | 0.00 | 0.00 | 0.00 | 59 | 1001.8 |
| 20260503001550 | 8 | 219 | 0.0 | 0.0 | 0.00 | 0.00 | 0.00 | 59 | 1001.8 |
| 20260503001350 | 8 | 219 | 0.0 | 0.0 | 0.00 | 0.00 | 0.00 | 59 | 1001.8 |
| 20260503001150 | 8 | 219 | 0.0 | 0.0 | 0.00 | 0.00 | 0.00 | 59 | 1001.8 |
| 20260503000950 | 8 | 219 | 0.0 | 0.0 | 0.00 | 0.00 | 0.00 | 59 | 1001.8 |
| 20260503000750 | 8 | 219 | 0.0 | 0.0 | 0.00 | 0.00 | 0.00 | 59 | 1001.8 |
| 20260503000550 | 8 | 219 | 0.0 | 0.0 | 0.00 | 0.00 | 0.00 | 59 | 1001.8 |
| 20260503000350 | 8 | 219 | 0.0 | 0.0 | 0.00 | 0.00 | 0.00 | 59 | 1001.8 |
| 20260503000153 | 8 | 219 | 0.0 | 0.0 | 0.00 | 0.00 | 0.00 | 58 | 1001.9 |
| 20260502235950 | 8 | 219 | 0.0 | 0.0 | 0.00 | 0.00 | 0.00 | 58 | 1001.8 |
| 20260502235750 | 8 | 219 | 0.0 | 0.0 | 0.00 | 0.00 | 0.00 | 58 | 1001.8 |
| 20260502235550 | 8 | 219 | 0.0 | 0.0 | 0.00 | 0.00 | 0.00 | 58 | 1001.8 |
| 20260502235350 | 8 | 219 | 0.0 | 0.0 | 0.00 | 0.00 | 0.00 | 58 | 1001.8 |
| 20260502235150 | 8 | 219 | 0.0 | 0.0 | 0.00 | 0.00 | 0.00 | 58 | 1001.9 |
| 20260502234950 | 8 | 219 | 0.0 | 0.0 | 0.00 | 0.00 | 0.00 | 59 | 1001.9 |
| 20260502234749 | 8 | 219 | 0.0 | 0.0 | 0.00 | 0.00 | 0.00 | 58 | 1001.9 |
| 20260502234549 | 8 | 219 | 0.0 | 0.0 | 0.00 | 0.00 | 0.00 | 58 | 1001.9 |
| 20260502234349 | 8 | 219 | 0.0 | 0.0 | 0.00 | 0.00 | 0.00 | 58 | 1001.8 |
| 20260502234149 | 8 | 219 | 0.0 | 0.0 | 0.00 | 0.00 | 0.00 | 58 | 1001.8 |
| 20260502233949 | 8 | 219 | 0.0 | 0.0 | 0.00 | 0.00 | 0.00 | 58 | 1001.8 |
| 20260502233749 | 8 | 219 | 0.0 | 0.0 | 0.00 | 0.00 | 0.00 | 58 | 1001.9 |
| 20260502233549 | 8 | 219 | 0.0 | 0.0 | 0.00 | 0.00 | 0.00 | 57 | 1001.9 |
| 20260502233349 | 8 | 219 | 0.0 | 0.0 | 0.00 | 0.00 | 0.00 | 57 | 1001.9 |
| 20260502233149 | 9 | 219 | 0.0 | 0.0 | 0.00 | 0.00 | 0.00 | 57 | 1001.8 |
| 20260502232950 | 9 | 219 | 0.0 | 0.0 | 0.00 | 0.00 | 0.00 | 57 | 1001.8 |
| 20260502232749 | 9 | 219 | 0.0 | 0.0 | 0.00 | 0.00 | 0.00 | 56 | 1001.8 |
| 20260502232549 | 9 | 219 | 0.0 | 0.0 | 0.00 | 0.00 | 0.00 | 56 | 1001.8 |
| 20260502232349 | 10 | 219 | 0.0 | 0.0 | 0.00 | 0.00 | 0.00 | 56 | 1001.8 |
| 20260502232149 | 10 | 219 | 0.0 | 0.0 | 0.00 | 0.00 | 0.00 | 56 | 1001.8 |
| 20260502231949 | 10 | 219 | 0.0 | 0.0 | 0.00 | 0.00 | 0.00 | 56 | 1001.8 |
| 20260502231748 | 10 | 219 | 0.0 | 0.0 | 0.00 | 0.00 | 0.00 | 56 | 1001.8 |
| 20260502231548 | 10 | 219 | 0.0 | 0.0 | 0.00 | 0.00 | 0.00 | 56 | 1001.8 |
| 20260502231348 | 10 | 219 | 0.0 | 0.0 | 0.00 | 0.00 | 0.00 | 55 | 1001.8 |
| 20260502231148 | 10 | 219 | 0.0 | 0.0 | 0.00 | 0.00 | 0.00 | 55 | 1001.8 |
| 20260502230948 | 10 | 219 | 0.0 | 0.0 | 0.00 | 0.00 | 0.00 | 55 | 1001.8 |
| 20260502230748 | 10 | 219 | 0.0 | 0.0 | 0.00 | 0.00 | 0.00 | 55 | 1001.8 |
| 20260502230548 | 11 | 219 | 0.0 | 0.0 | 0.00 | 0.00 | 0.00 | 55 | 1001.9 |
| 20260502230348 | 11 | 219 | 0.0 | 0.0 | 0.00 | 0.00 | 0.00 | 55 | 1001.8 |
| 20260502230148 | 11 | 219 | 0.0 | 0.0 | 0.00 | 0.00 | 0.00 | 55 | 1001.8 |
| 20260502225948 | 12 | 219 | 0.0 | 0.0 | 0.00 | 0.00 | 0.00 | 55 | 1001.8 |
| 20260502225748 | 12 | 219 | 0.0 | 0.0 | 0.00 | 0.00 | 0.00 | 54 | 1001.7 |
| 20260502225548 | 12 | 219 | 0.0 | 1.6 | 0.00 | 0.00 | 0.00 | 54 | 1001.7 |
| 20260502225348 | 12 | 219 | 1.6 | 1.6 | 0.00 | 0.00 | 0.00 | 54 | 1001.7 |
| 20260502225148 | 12 | 219 | 1.6 | 1.6 | 0.00 | 0.00 | 0.00 | 54 | 1001.7 |
| 20260502224948 | 12 | 219 | 1.6 | 1.6 | 0.00 | 0.00 | 0.00 | 55 | 1001.7 |
| 20260502224748 | 12 | 219 | 1.6 | 1.6 | 0.00 | 0.00 | 0.00 | 54 | 1001.7 |
| 20260502224547 | 12 | 219 | 1.6 | 1.6 | 0.00 | 0.00 | 0.00 | 54 | 1001.7 |
| 20260502224347 | 12 | 219 | 1.6 | 1.6 | 0.00 | 0.00 | 0.00 | 54 | 1001.7 |
| 20260502224147 | 12 | 219 | 1.6 | 1.6 | 0.00 | 0.00 | 0.00 | 54 | 1001.8 |
| 20260502223947 | 12 | 219 | 1.6 | 1.6 | 0.00 | 0.00 | 0.00 | 54 | 1001.8 |
| 20260502223747 | 12 | 219 | 1.6 | 1.6 | 0.00 | 0.00 | 0.00 | 54 | 1001.7 |
| 20260502223547 | 12 | 219 | 1.6 | 3.2 | 0.00 | 0.00 | 0.00 | 54 | 1001.7 |
| 20260502223347 | 12 | 219 | 3.2 | 3.2 | 0.00 | 0.00 | 0.00 | 54 | 1001.7 |
| 20260502223147 | 13 | 219 | 3.2 | 3.2 | 0.00 | 0.00 | 0.00 | 54 | 1001.6 |
| 20260502222947 | 13 | 219 | 3.2 | 3.2 | 0.00 | 0.00 | 0.00 | 54 | 1001.6 |
| 20260502222747 | 13 | 219 | 3.2 | 3.2 | 0.00 | 0.00 | 0.00 | 54 | 1001.6 |
| 20260502222547 | 13 | 219 | 3.2 | 3.2 | 0.00 | 0.00 | 0.00 | 54 | 1001.6 |
| 20260502222347 | 13 | 219 | 3.2 | 3.2 | 0.00 | 0.00 | 0.00 | 54 | 1001.7 |
| 20260502222147 | 13 | 219 | 3.2 | 3.2 | 0.00 | 0.00 | 0.00 | 54 | 1001.7 |
| 20260502221947 | 13 | 219 | 3.2 | 3.2 | 0.00 | 0.00 | 0.00 | 54 | 1001.7 |
| 20260502221747 | 13 | 219 | 3.2 | 3.2 | 0.00 | 0.00 | 0.00 | 54 | 1001.8 |
| 20260502221546 | 13 | 219 | 3.2 | 3.2 | 0.00 | 0.00 | 0.00 | 54 | 1001.8 |
| 20260502221346 | 13 | 219 | 3.2 | 3.2 | 0.00 | 0.00 | 0.00 | 54 | 1001.8 |
| 20260502221146 | 12 | 219 | 3.2 | 3.2 | 0.00 | 0.00 | 0.00 | 54 | 1001.8 |
| 20260502220946 | 12 | 219 | 3.2 | 3.2 | 0.00 | 0.00 | 0.00 | 55 | 1001.8 |
| 20260502220746 | 12 | 219 | 3.2 | 3.2 | 0.00 | 0.00 | 0.00 | 55 | 1001.9 |
| 20260502220546 | 12 | 219 | 3.2 | 3.2 | 0.00 | 0.00 | 0.00 | 55 | 1001.9 |
| 20260502220346 | 12 | 219 | 3.2 | 3.2 | 0.00 | 0.00 | 0.00 | 55 | 1002.0 |
| 20260502220146 | 12 | 219 | 3.2 | 3.2 | 0.00 | 0.00 | 0.00 | 55 | 1002.0 |
| 20260502215938 | 12 | 219 | 3.2 | 3.2 | 0.00 | 0.00 | 0.00 | 55 | 1002.0 |
| 20260502215738 | 12 | 219 | 3.2 | 3.2 | 0.00 | 0.00 | 0.00 | 55 | 1002.0 |
| 20260502215538 | 12 | 219 | 3.2 | 3.2 | 0.00 | 0.00 | 0.00 | 55 | 1002.0 |
| 20260502215338 | 12 | 219 | 3.2 | 4.8 | 0.00 | 0.00 | 0.00 | 55 | 1001.9 |
| 20260502215137 | 12 | 219 | 3.2 | 3.2 | 0.00 | 0.00 | 0.00 | 55 | 1001.9 |
| 20260502214938 | 11 | 219 | 3.2 | 3.2 | 0.00 | 0.00 | 0.00 | 56 | 1001.9 |
| 20260502214737 | 11 | 219 | 3.2 | 3.2 | 0.00 | 0.00 | 0.00 | 56 | 1002.0 |
| 20260502214537 | 11 | 219 | 1.6 | 3.2 | 0.00 | 0.00 | 0.00 | 56 | 1002.0 |
| 20260502214337 | 11 | 219 | 0.0 | 1.6 | 0.00 | 0.00 | 0.00 | 55 | 1002.0 |
| 20260502214137 | 11 | 219 | 0.0 | 0.0 | 0.00 | 0.00 | 0.00 | 56 | 1002.0 |
| 20260502213937 | 11 | 219 | 0.0 | 0.0 | 0.00 | 0.00 | 0.00 | 56 | 1002.0 |
| 20260502213737 | 11 | 219 | 0.0 | 0.0 | 0.00 | 0.00 | 0.00 | 55 | 1002.0 |
| 20260502213537 | 11 | 219 | 0.0 | 0.0 | 0.00 | 0.00 | 0.00 | 56 | 1002.0 |
| 20260502213337 | 11 | 219 | 0.0 | 0.0 | 0.00 | 0.00 | 0.00 | 55 | 1002.0 |
| 20260502213137 | 11 | 219 | 0.0 | 0.0 | 0.00 | 0.00 | 0.00 | 55 | 1002.0 |
| 20260502212938 | 11 | 219 | 0.0 | 0.0 | 0.00 | 0.00 | 0.00 | 55 | 1002.0 |
| 20260502212737 | 11 | 219 | 0.0 | 0.0 | 0.00 | 0.00 | 0.00 | 55 | 1002.1 |
| 20260502212537 | 11 | 219 | 0.0 | 0.0 | 0.00 | 0.00 | 0.00 | 55 | 1002.0 |
| 20260502212337 | 11 | 219 | 0.0 | 0.0 | 0.00 | 0.00 | 0.00 | 55 | 1002.0 |
| 20260502212137 | 11 | 219 | 0.0 | 0.0 | 0.00 | 0.00 | 0.00 | 55 | 1002.0 |
| 20260502211937 | 11 | 219 | 0.0 | 0.0 | 0.00 | 0.00 | 0.00 | 55 | 1002.1 |
| 20260502211737 | 11 | 219 | 0.0 | 0.0 | 0.00 | 0.00 | 0.00 | 55 | 1002.0 |
| 20260502211536 | 11 | 219 | 0.0 | 0.0 | 0.00 | 0.00 | 0.00 | 56 | 1002.0 |
| 20260502211336 | 11 | 219 | 0.0 | 0.0 | 0.00 | 0.00 | 0.00 | 55 | 1002.0 |
| 20260502211136 | 11 | 219 | 0.0 | 0.0 | 0.00 | 0.00 | 0.00 | 55 | 1002.0 |
| 20260502210936 | 11 | 219 | 0.0 | 0.0 | 0.00 | 0.00 | 0.00 | 55 | 1002.0 |
| 20260502210737 | 11 | 219 | 0.0 | 0.0 | 0.00 | 0.00 | 0.00 | 55 | 1002.0 |
| 20260502210536 | 11 | 219 | 0.0 | 0.0 | 0.00 | 0.00 | 0.00 | 55 | 1002.0 |
| 20260502210336 | 11 | 219 | 0.0 | 0.0 | 0.00 | 0.00 | 0.00 | 55 | 1002.0 |
| 20260502210136 | 11 | 219 | 0.0 | 0.0 | 0.00 | 0.00 | 0.00 | 55 | 1002.1 |
| 20260502205936 | 11 | 219 | 0.0 | 0.0 | 0.00 | 0.00 | 0.00 | 55 | 1002.1 |
| 20260502205736 | 11 | 219 | 0.0 | 0.0 | 0.00 | 0.00 | 0.00 | 55 | 1002.1 |
| 20260502205536 | 11 | 219 | 0.0 | 0.0 | 0.00 | 0.00 | 0.00 | 55 | 1002.1 |
| 20260502205336 | 11 | 219 | 0.0 | 0.0 | 0.00 | 0.00 | 0.00 | 55 | 1002.1 |
| 20260502205136 | 11 | 219 | 0.0 | 0.0 | 0.00 | 0.00 | 0.00 | 55 | 1002.1 |
| 20260502204936 | 11 | 219 | 0.0 | 0.0 | 0.00 | 0.00 | 0.00 | 55 | 1002.1 |
| 20260502204736 | 11 | 219 | 0.0 | 1.6 | 0.00 | 0.00 | 0.00 | 55 | 1002.1 |
| 20260502204535 | 11 | 219 | 1.6 | 1.6 | 0.00 | 0.00 | 0.00 | 55 | 1002.1 |
| 20260502204335 | 10 | 219 | 1.6 | 1.6 | 0.00 | 0.00 | 0.00 | 55 | 1002.1 |
| 20260502204135 | 10 | 219 | 1.6 | 1.6 | 0.00 | 0.00 | 0.00 | 55 | 1002.1 |
| 20260502203935 | 10 | 219 | 0.0 | 1.6 | 0.00 | 0.00 | 0.00 | 55 | 1002.1 |
| 20260502203735 | 10 | 219 | 0.0 | 0.0 | 0.00 | 0.00 | 0.00 | 55 | 1002.1 |
| 20260502203535 | 10 | 219 | 0.0 | 0.0 | 0.00 | 0.00 | 0.00 | 55 | 1002.1 |
| 20260502203335 | 11 | 219 | 0.0 | 0.0 | 0.00 | 0.00 | 0.00 | 55 | 1002.1 |
| 20260502203135 | 11 | 219 | 0.0 | 0.0 | 0.00 | 0.00 | 0.00 | 55 | 1002.2 |
| 20260502202935 | 11 | 219 | 0.0 | 0.0 | 0.00 | 0.00 | 0.00 | 55 | 1002.1 |
| 20260502202735 | 11 | 219 | 0.0 | 0.0 | 0.00 | 0.00 | 0.00 | 55 | 1002.0 |
| 20260502202535 | 11 | 219 | 0.0 | 0.0 | 0.00 | 0.00 | 0.00 | 55 | 1002.0 |
| 20260502202335 | 11 | 219 | 0.0 | 0.0 | 0.00 | 0.00 | 0.00 | 54 | 1002.0 |
| 20260502202135 | 11 | 219 | 0.0 | 0.0 | 0.00 | 0.00 | 0.00 | 54 | 1002.0 |
| 20260502201936 | 11 | 219 | 0.0 | 0.0 | 0.00 | 0.00 | 0.00 | 54 | 1002.0 |
| 20260502201735 | 11 | 219 | 0.0 | 0.0 | 0.00 | 0.00 | 0.00 | 54 | 1002.0 |
| 20260502201535 | 11 | 219 | 0.0 | 0.0 | 0.00 | 0.00 | 0.00 | 54 | 1002.1 |
| 20260502201334 | 11 | 219 | 0.0 | 0.0 | 0.00 | 0.00 | 0.00 | 54 | 1002.1 |
| 20260502201134 | 12 | 219 | 0.0 | 0.0 | 0.00 | 0.00 | 0.00 | 54 | 1002.1 |
| 20260502200934 | 12 | 219 | 0.0 | 0.0 | 0.00 | 0.00 | 0.00 | 54 | 1002.1 |
| 20260502200734 | 11 | 219 | 0.0 | 0.0 | 0.00 | 0.00 | 0.00 | 54 | 1002.0 |
| 20260502200534 | 11 | 219 | 0.0 | 1.6 | 0.00 | 0.00 | 0.00 | 54 | 1002.0 |
| 20260502200334 | 12 | 219 | 1.6 | 1.6 | 0.00 | 0.00 | 0.00 | 54 | 1002.0 |
| 20260502200136 | 12 | 219 | 1.6 | 1.6 | 0.00 | 0.00 | 0.00 | 53 | 1002.0 |
| 20260502195933 | 12 | 219 | 1.6 | 3.2 | 0.00 | 0.00 | 0.00 | 54 | 1002.0 |
| 20260502195734 | 12 | 219 | 1.6 | 3.2 | 0.00 | 0.00 | 0.00 | 53 | 1002.1 |
| 20260502195534 | 12 | 219 | 0.0 | 1.6 | 0.00 | 0.00 | 0.00 | 53 | 1002.1 |
| 20260502195334 | 11 | 219 | 0.0 | 1.6 | 0.00 | 0.00 | 0.00 | 53 | 1002.1 |
| 20260502195134 | 11 | 219 | 1.6 | 1.6 | 0.00 | 0.00 | 0.00 | 53 | 1002.1 |
| 20260502194934 | 12 | 219 | 0.0 | 1.6 | 0.00 | 0.00 | 0.00 | 53 | 1002.1 |
| 20260502194734 | 12 | 221 | 1.6 | 1.6 | 0.00 | 0.00 | 0.00 | 53 | 1002.1 |
| 20260502194534 | 12 | 221 | 1.6 | 1.6 | 0.00 | 0.00 | 0.00 | 53 | 1002.1 |
| 20260502194333 | 12 | 220 | 1.6 | 1.6 | 0.00 | 0.00 | 0.00 | 53 | 1002.1 |
| 20260502194133 | 12 | 219 | 1.6 | 1.6 | 0.00 | 0.00 | 0.00 | 52 | 1002.1 |
| 20260502193933 | 13 | 221 | 1.6 | 1.6 | 0.00 | 0.00 | 0.00 | 52 | 1002.1 |
| 20260502193733 | 13 | 221 | 1.6 | 1.6 | 0.00 | 0.00 | 0.00 | 52 | 1002.1 |
| 20260502193533 | 13 | 220 | 1.6 | 1.6 | 0.00 | 0.00 | 0.00 | 52 | 1002.1 |
| 20260502193333 | 13 | 219 | 1.6 | 1.6 | 0.00 | 0.00 | 0.00 | 52 | 1002.0 |
| 20260502193133 | 14 | 219 | 1.6 | 1.6 | 0.00 | 0.00 | 0.00 | 52 | 1002.0 |
| 20260502192933 | 13 | 219 | 1.6 | 3.2 | 0.00 | 0.00 | 0.00 | 52 | 1002.1 |
| 20260502192733 | 13 | 219 | 1.6 | 3.2 | 0.00 | 0.00 | 0.00 | 52 | 1002.1 |
| 20260502192324 | 13 | 219 | 1.6 | 1.6 | 0.00 | 0.00 | 0.00 | 51 | 1002.1 |
| 20260502192124 | 13 | 220 | 1.6 | 1.6 | 0.00 | 0.00 | 0.00 | 51 | 1002.2 |
| 20260502191924 | 13 | 220 | 1.6 | 1.6 | 0.00 | 0.00 | 0.00 | 51 | 1002.2 |
| 20260502191724 | 13 | 219 | 1.6 | 1.6 | 0.00 | 0.00 | 0.00 | 51 | 1002.2 |
| 20260502191524 | 13 | 219 | 0.0 | 1.6 | 0.00 | 0.00 | 0.00 | 50 | 1002.2 |
| 20260502191324 | 13 | 219 | 1.6 | 1.6 | 0.00 | 0.00 | 0.00 | 50 | 1002.2 |
| 20260502191124 | 13 | 219 | 1.6 | 3.2 | 0.00 | 0.00 | 0.00 | 50 | 1002.3 |
| 20260502190923 | 14 | 219 | 3.2 | 3.2 | 0.00 | 0.00 | 0.00 | 50 | 1002.3 |
| 20260502190723 | 14 | 219 | 3.2 | 3.2 | 0.00 | 0.00 | 0.00 | 50 | 1002.3 |
| 20260502190523 | 15 | 219 | 3.2 | 3.2 | 0.00 | 0.00 | 0.00 | 49 | 1002.3 |
| 20260502190323 | 15 | 219 | 3.2 | 3.2 | 0.00 | 0.00 | 0.00 | 49 | 1002.2 |
| 20260502190123 | 15 | 219 | 3.2 | 3.2 | 0.00 | 0.00 | 0.00 | 49 | 1002.2 |
| 20260502185923 | 15 | 219 | 3.2 | 3.2 | 0.00 | 0.00 | 0.00 | 49 | 1002.2 |
| 20260502185723 | 15 | 219 | 3.2 | 3.2 | 0.00 | 0.00 | 0.00 | 48 | 1002.2 |
| 20260502185523 | 16 | 219 | 3.2 | 3.2 | 0.00 | 0.00 | 0.00 | 48 | 1002.1 |
| 20260502185323 | 16 | 219 | 1.6 | 3.2 | 0.00 | 0.00 | 0.00 | 48 | 1002.2 |
| 20260502185123 | 16 | 219 | 0.0 | 0.0 | 0.00 | 0.00 | 0.00 | 48 | 1002.2 |
| 20260502184923 | 16 | 219 | 0.0 | 0.0 | 0.00 | 0.00 | 0.00 | 48 | 1002.1 |
| 20260502184723 | 16 | 219 | 0.0 | 0.0 | 0.00 | 0.00 | 0.00 | 48 | 1002.1 |
| 20260502184523 | 17 | 219 | 0.0 | 1.6 | 0.00 | 0.00 | 0.00 | 48 | 1002.1 |
| 20260502184323 | 17 | 219 | 0.0 | 1.6 | 0.00 | 0.00 | 0.00 | 48 | 1002.1 |
| 20260502184123 | 17 | 219 | 1.6 | 1.6 | 0.00 | 0.00 | 0.00 | 48 | 1002.1 |
| 20260502183923 | 17 | 219 | 1.6 | 3.2 | 0.00 | 0.00 | 0.00 | 47 | 1002.1 |
| 20260502183722 | 17 | 219 | 1.6 | 3.2 | 0.00 | 0.00 | 0.00 | 47 | 1002.1 |
| 20260502183522 | 17 | 216 | 3.2 | 3.2 | 0.00 | 0.00 | 0.00 | 47 | 1002.1 |
| 20260502183322 | 17 | 214 | 3.2 | 4.8 | 0.00 | 0.00 | 0.00 | 47 | 1002.1 |
| 20260502183122 | 17 | 214 | 3.2 | 4.8 | 0.00 | 0.00 | 0.00 | 47 | 1002.1 |
| 20260502182922 | 17 | 214 | 3.2 | 3.2 | 0.00 | 0.00 | 0.00 | 47 | 1002.2 |
| 20260502182722 | 18 | 214 | 3.2 | 3.2 | 0.00 | 0.00 | 0.00 | 47 | 1002.2 |
| 20260502182522 | 18 | 207 | 3.2 | 4.8 | 0.00 | 0.00 | 0.00 | 46 | 1002.0 |
| 20260502182322 | 18 | 190 | 6.4 | 6.4 | 0.00 | 0.00 | 0.00 | 46 | 1002.0 |
| 20260502182122 | 19 | 186 | 6.4 | 8.0 | 0.00 | 0.00 | 0.00 | 46 | 1001.9 |
| 20260502181922 | 19 | 185 | 8.0 | 8.0 | 0.00 | 0.00 | 0.00 | 46 | 1001.9 |
| 20260502181722 | 20 | 185 | 8.0 | 9.7 | 0.00 | 0.00 | 0.00 | 45 | 1001.8 |
| 20260502181522 | 20 | 185 | 8.0 | 8.0 | 0.00 | 0.00 | 0.00 | 45 | 1001.8 |
| 20260502181322 | 20 | 185 | 8.0 | 9.7 | 0.00 | 0.00 | 0.00 | 45 | 1001.9 |
| 20260502181122 | 20 | 186 | 8.0 | 9.7 | 0.00 | 0.00 | 0.00 | 45 | 1001.9 |
| 20260502180922 | 20 | 185 | 8.0 | 9.7 | 0.00 | 0.00 | 0.00 | 45 | 1001.9 |
| 20260502180721 | 20 | 185 | 8.0 | 9.7 | 0.00 | 0.00 | 0.00 | 45 | 1001.9 |
| 20260502180521 | 20 | 181 | 9.7 | 9.7 | 0.00 | 0.00 | 0.00 | 44 | 1001.9 |
| 20260502180322 | 21 | 174 | 9.7 | 9.7 | 0.00 | 0.00 | 0.00 | 44 | 1001.9 |
| 20260502180122 | 21 | 170 | 8.0 | 9.7 | 0.00 | 0.00 | 0.00 | 44 | 1001.9 |
| 20260502170519 | 22 | 261 | 3.2 | 4.8 | 0.00 | 0.00 | 0.00 | 43 | 1001.8 |
| 20260502170318 | 22 | 261 | 3.2 | 4.8 | 0.00 | 0.00 | 0.00 | 42 | 1001.8 |
| 20260502170119 | 22 | 261 | 3.2 | 4.8 | 0.00 | 0.00 | 0.00 | 43 | 1001.7 |
| 20260502164311 | 22 | 280 | 3.2 | 6.4 | 0.00 | 0.00 | 0.00 | 43 | 1001.8 |
| 20260502164111 | 22 | 277 | 3.2 | 4.8 | 0.00 | 0.00 | 0.00 | 43 | 1001.8 |
| 20260502163911 | 23 | 275 | 3.2 | 4.8 | 0.00 | 0.00 | 0.00 | 43 | 1001.8 |
| 20260502163711 | 23 | 295 | 6.4 | 9.7 | 0.00 | 0.00 | 0.00 | 43 | 1001.8 |
| 20260502163511 | 23 | 297 | 6.4 | 9.7 | 0.00 | 0.00 | 0.00 | 43 | 1001.8 |
| 20260502163310 | 23 | 283 | 3.2 | 6.4 | 0.00 | 0.00 | 0.00 | 43 | 1001.8 |
| 20260502163110 | 23 | 284 | 3.2 | 4.8 | 0.00 | 0.00 | 0.00 | 43 | 1001.9 |
| 20260502162910 | 23 | 297 | 4.8 | 6.4 | 0.00 | 0.00 | 0.00 | 43 | 1001.9 |
| 20260502162710 | 23 | 285 | 6.4 | 12.9 | 0.00 | 0.00 | 0.00 | 43 | 1001.9 |
| 20260502162510 | 23 | 274 | 8.0 | 12.9 | 0.00 | 0.00 | 0.00 | 43 | 1001.9 |
| 20260502162310 | 23 | 293 | 8.0 | 11.3 | 0.00 | 0.00 | 0.00 | 43 | 1001.9 |
| 20260502162110 | 23 | 291 | 6.4 | 8.0 | 0.00 | 0.00 | 0.00 | 43 | 1001.9 |
| 20260502161910 | 23 | 298 | 6.4 | 8.0 | 0.00 | 0.00 | 0.00 | 43 | 1001.9 |
| 20260502161710 | 23 | 289 | 6.4 | 8.0 | 0.00 | 0.00 | 0.00 | 43 | 1001.9 |
| 20260502161510 | 23 | 294 | 4.8 | 6.4 | 0.00 | 0.00 | 0.00 | 43 | 1002.0 |
| 20260502161310 | 23 | 291 | 4.8 | 6.4 | 0.00 | 0.00 | 0.00 | 43 | 1002.0 |
| 20260502161110 | 23 | 273 | 4.8 | 6.4 | 0.00 | 0.00 | 0.00 | 43 | 1002.1 |
| 20260502160910 | 23 | 268 | 8.0 | 11.3 | 0.00 | 0.00 | 0.00 | 43 | 1002.2 |
| 20260502160710 | 23 | 268 | 9.7 | 14.5 | 0.00 | 0.00 | 0.00 | 43 | 1002.1 |
| 20260502160510 | 23 | 270 | 9.7 | 14.5 | 0.00 | 0.00 | 0.00 | 43 | 1002.1 |
| 20260502160309 | 23 | 279 | 8.0 | 11.3 | 0.00 | 0.00 | 0.00 | 43 | 1002.1 |
| 20260502160109 | 23 | 279 | 6.4 | 11.3 | 0.00 | 0.00 | 0.00 | 43 | 1002.1 |
| 20260502152308 | 23 | 278 | 9.7 | 12.9 | 0.00 | 0.00 | 0.00 | 44 | 1002.6 |
| 20260502152108 | 23 | 268 | 11.3 | 14.5 | 0.00 | 0.00 | 0.00 | 44 | 1002.5 |
| 20260502151908 | 23 | 266 | 6.4 | 12.9 | 0.00 | 0.00 | 0.00 | 44 | 1002.5 |
| 20260502151708 | 23 | 245 | 4.8 | 6.4 | 0.00 | 0.00 | 0.00 | 44 | 1002.6 |
| 20260502151508 | 23 | 226 | 6.4 | 9.7 | 0.00 | 0.00 | 0.00 | 44 | 1002.8 |
| 20260502151308 | 23 | 225 | 11.3 | 16.1 | 0.00 | 0.00 | 0.00 | 44 | 1002.8 |
| 20260502151108 | 23 | 251 | 12.9 | 16.1 | 0.00 | 0.00 | 0.00 | 44 | 1002.6 |
| 20260502150908 | 23 | 270 | 6.4 | 16.1 | 0.00 | 0.00 | 0.00 | 44 | 1002.6 |
| 20260502150708 | 23 | 314 | 4.8 | 8.0 | 0.00 | 0.00 | 0.00 | 45 | 1002.7 |
| 20260502150508 | 23 | 305 | 6.4 | 8.0 | 0.00 | 0.00 | 0.00 | 44 | 1002.7 |
| 20260502150308 | 23 | 276 | 6.4 | 9.7 | 0.00 | 0.00 | 0.00 | 44 | 1002.7 |
| 20260502150107 | 23 | 261 | 8.0 | 12.9 | 0.00 | 0.00 | 0.00 | 44 | 1002.8 |
| 20260502130658 | 23 | 320 | 8.0 | 14.5 | 0.00 | 0.00 | 0.00 | 48 | 1003.4 |
| 20260502130459 | 23 | 277 | 3.2 | 6.4 | 0.00 | 0.00 | 0.00 | 48 | 1003.7 |
| 20260502130258 | 23 | 264 | 4.8 | 9.7 | 0.00 | 0.00 | 0.00 | 47 | 1003.9 |
| 20260502123657 | 22 | 248 | 1.6 | 6.4 | 0.00 | 0.00 | 0.00 | 49 | 1003.9 |
| 20260502123457 | 22 | 258 | 4.8 | 8.0 | 0.00 | 0.00 | 0.00 | 49 | 1004.1 |
| 20260502123258 | 22 | 269 | 6.4 | 9.7 | 0.00 | 0.00 | 0.00 | 49 | 1004.2 |
| 20260502123057 | 22 | 245 | 9.7 | 12.9 | 0.00 | 0.00 | 0.00 | 49 | 1004.2 |
| 20260502122857 | 22 | 257 | 11.3 | 17.7 | 0.00 | 0.00 | 0.00 | 49 | 1004.2 |
| 20260502122658 | 22 | 273 | 9.7 | 14.5 | 0.00 | 0.00 | 0.00 | 49 | 1004.1 |
| 20260502122457 | 22 | 278 | 8.0 | 12.9 | 0.00 | 0.00 | 0.00 | 49 | 1004.2 |
| 20260502122257 | 22 | 270 | 8.0 | 11.3 | 0.00 | 0.00 | 0.00 | 49 | 1004.3 |
| 20260502122057 | 22 | 284 | 9.7 | 14.5 | 0.00 | 0.00 | 0.00 | 49 | 1004.3 |
| 20260502121857 | 22 | 280 | 11.3 | 16.1 | 0.00 | 0.00 | 0.00 | 49 | 1004.4 |
| 20260502121657 | 22 | 276 | 11.3 | 14.5 | 0.00 | 0.00 | 0.00 | 49 | 1004.5 |
| 20260502121457 | 22 | 253 | 12.9 | 17.7 | 0.00 | 0.00 | 0.00 | 49 | 1004.6 |
| 20260502121257 | 22 | 227 | 16.1 | 20.9 | 0.00 | 0.00 | 0.00 | 49 | 1004.6 |
| 20260502121057 | 22 | 231 | 12.9 | 20.9 | 0.00 | 0.00 | 0.00 | 50 | 1004.6 |
| 20260502120856 | 22 | 232 | 9.7 | 12.9 | 0.00 | 0.00 | 0.00 | 50 | 1004.6 |
| 20260502120656 | 22 | 248 | 12.9 | 19.3 | 0.00 | 0.00 | 0.00 | 50 | 1004.7 |
| 20260502120456 | 22 | 260 | 16.1 | 19.3 | 0.00 | 0.00 | 0.00 | 50 | 1004.7 |
| 20260502120256 | 22 | 255 | 9.7 | 19.3 | 0.00 | 0.00 | 0.00 | 50 | 1004.6 |
| 20260502115856 | 22 | 266 | 6.4 | 16.1 | 0.00 | 0.00 | 0.00 | 50 | 1004.4 |
| 20260502115656 | 22 | 265 | 6.4 | 9.7 | 0.00 | 0.00 | 0.00 | 50 | 1004.5 |
| 20260502115456 | 22 | 278 | 6.4 | 9.7 | 0.00 | 0.00 | 0.00 | 51 | 1004.7 |
| 20260502115256 | 22 | 273 | 9.7 | 14.5 | 0.00 | 0.00 | 0.00 | 50 | 1004.8 |
| 20260502115056 | 22 | 298 | 16.1 | 20.9 | 0.00 | 0.00 | 0.00 | 51 | 1004.6 |
| 20260502114856 | 22 | 338 | 14.5 | 20.9 | 0.00 | 0.00 | 0.00 | 51 | 1004.6 |
| 20260502114656 | 22 | 318 | 6.4 | 12.9 | 0.00 | 0.00 | 0.00 | 51 | 1004.6 |
| 20260502114456 | 22 | 273 | 4.8 | 8.0 | 0.00 | 0.00 | 0.00 | 51 | 1004.7 |
| 20260502114257 | 22 | 278 | 6.4 | 11.3 | 0.00 | 0.00 | 0.00 | 51 | 1004.7 |
| 20260502114056 | 22 | 279 | 9.7 | 14.5 | 0.00 | 0.00 | 0.00 | 51 | 1004.8 |
| 20260502113847 | 22 | 246 | 8.0 | 14.5 | 0.00 | 0.00 | 0.00 | 51 | 1004.8 |
| 20260502113647 | 22 | 233 | 8.0 | 16.1 | 0.00 | 0.00 | 0.00 | 51 | 1004.9 |
| 20260502113447 | 22 | 252 | 9.7 | 14.5 | 0.00 | 0.00 | 0.00 | 52 | 1004.9 |
| 20260502113248 | 22 | 257 | 8.0 | 14.5 | 0.00 | 0.00 | 0.00 | 52 | 1005.0 |
| 20260502113047 | 22 | 262 | 11.3 | 19.3 | 0.00 | 0.00 | 0.00 | 52 | 1005.0 |
| 20260502112847 | 22 | 257 | 16.1 | 20.9 | 0.00 | 0.00 | 0.00 | 52 | 1005.0 |
| 20260502112647 | 22 | 262 | 12.9 | 20.9 | 0.00 | 0.00 | 0.00 | 52 | 1004.9 |
| 20260502112447 | 22 | 280 | 8.0 | 14.5 | 0.00 | 0.00 | 0.00 | 52 | 1004.8 |
| 20260502112247 | 22 | 203 | 8.0 | 12.9 | 0.00 | 0.00 | 0.00 | 52 | 1004.9 |
| 20260502112047 | 22 | 200 | 9.7 | 12.9 | 0.00 | 0.00 | 0.00 | 53 | 1004.8 |
| 20260502111847 | 22 | 209 | 9.7 | 16.1 | 0.00 | 0.00 | 0.00 | 52 | 1004.8 |
| 20260502111647 | 22 | 249 | 8.0 | 11.3 | 0.00 | 0.00 | 0.00 | 53 | 1004.9 |
| 20260502111447 | 21 | 258 | 9.7 | 16.1 | 0.00 | 0.00 | 0.00 | 53 | 1005.1 |
| 20260502111247 | 21 | 237 | 12.9 | 17.7 | 0.00 | 0.00 | 0.00 | 53 | 1005.1 |
| 20260502111047 | 21 | 214 | 12.9 | 17.7 | 0.00 | 0.00 | 0.00 | 53 | 1005.1 |
| 20260502110846 | 21 | 209 | 9.7 | 14.5 | 0.00 | 0.00 | 0.00 | 53 | 1005.2 |
| 20260502110646 | 22 | 213 | 11.3 | 17.7 | 0.00 | 0.00 | 0.00 | 53 | 1005.1 |
| 20260502110447 | 21 | 230 | 12.9 | 17.7 | 0.00 | 0.00 | 0.00 | 53 | 1005.0 |
| 20260502110246 | 21 | 251 | 6.4 | 9.7 | 0.00 | 0.00 | 0.00 | 54 | 1005.0 |
| 20260502110047 | 21 | 250 | 9.7 | 16.1 | 0.00 | 0.00 | 0.00 | 53 | 1005.0 |
| 20260502105846 | 21 | 250 | 6.4 | 14.5 | 0.00 | 0.00 | 0.00 | 53 | 1005.0 |
| 20260502105647 | 21 | 248 | 9.7 | 16.1 | 0.00 | 0.00 | 0.00 | 53 | 1005.0 |
| 20260502105446 | 21 | 302 | 11.3 | 16.1 | 0.00 | 0.00 | 0.00 | 54 | 1005.1 |
| 20260502105246 | 21 | 269 | 8.0 | 14.5 | 0.00 | 0.00 | 0.00 | 54 | 1005.1 |
| 20260502105046 | 21 | 243 | 9.7 | 16.1 | 0.00 | 0.00 | 0.00 | 54 | 1005.1 |
| 20260502104846 | 21 | 260 | 8.0 | 16.1 | 0.00 | 0.00 | 0.00 | 54 | 1005.2 |
| 20260502104646 | 21 | 240 | 11.3 | 16.1 | 0.00 | 0.00 | 0.00 | 54 | 1005.2 |
| 20260502104446 | 21 | 262 | 11.3 | 14.5 | 0.00 | 0.00 | 0.00 | 54 | 1005.3 |
| 20260502104246 | 21 | 253 | 12.9 | 16.1 | 0.00 | 0.00 | 0.00 | 54 | 1005.2 |
| 20260502104045 | 21 | 250 | 11.3 | 17.7 | 0.00 | 0.00 | 0.00 | 54 | 1005.2 |
| 20260502103845 | 21 | 257 | 8.0 | 17.7 | 0.00 | 0.00 | 0.00 | 54 | 1005.3 |
| 20260502103645 | 21 | 270 | 8.0 | 16.1 | 0.00 | 0.00 | 0.00 | 55 | 1005.3 |
| 20260502103445 | 21 | 245 | 12.9 | 16.1 | 0.00 | 0.00 | 0.00 | 55 | 1005.4 |
| 20260502103245 | 21 | 239 | 12.9 | 16.1 | 0.00 | 0.00 | 0.00 | 55 | 1005.4 |
| 20260502103045 | 21 | 242 | 12.9 | 16.1 | 0.00 | 0.00 | 0.00 | 55 | 1005.4 |
| 20260502102845 | 21 | 236 | 12.9 | 17.7 | 0.00 | 0.00 | 0.00 | 55 | 1005.4 |
| 20260502102645 | 21 | 234 | 8.0 | 16.1 | 0.00 | 0.00 | 0.00 | 55 | 1005.5 |
| 20260502102445 | 21 | 237 | 14.5 | 19.3 | 0.00 | 0.00 | 0.00 | 55 | 1005.5 |
| 20260502102245 | 21 | 234 | 14.5 | 19.3 | 0.00 | 0.00 | 0.00 | 55 | 1005.5 |
| 20260502102045 | 21 | 240 | 12.9 | 17.7 | 0.00 | 0.00 | 0.00 | 55 | 1005.5 |
| 20260502101845 | 21 | 253 | 11.3 | 14.5 | 0.00 | 0.00 | 0.00 | 55 | 1005.5 |
| 20260502101645 | 21 | 256 | 9.7 | 14.5 | 0.00 | 0.00 | 0.00 | 56 | 1005.5 |
| 20260502101445 | 21 | 247 | 11.3 | 19.3 | 0.00 | 0.00 | 0.00 | 55 | 1005.6 |
| 20260502101245 | 21 | 256 | 14.5 | 19.3 | 0.00 | 0.00 | 0.00 | 56 | 1005.6 |
| 20260502101045 | 21 | 265 | 12.9 | 17.7 | 0.00 | 0.00 | 0.00 | 56 | 1005.5 |
| 20260502100844 | 20 | 267 | 12.9 | 17.7 | 0.00 | 0.00 | 0.00 | 56 | 1005.5 |
| 20260502100644 | 20 | 260 | 11.3 | 17.7 | 0.00 | 0.00 | 0.00 | 56 | 1005.5 |
| 20260502100444 | 20 | 250 | 9.7 | 12.9 | 0.00 | 0.00 | 0.00 | 56 | 1005.6 |
| 20260502100244 | 20 | 240 | 11.3 | 16.1 | 0.00 | 0.00 | 0.00 | 56 | 1005.7 |
| 20260502091443 | 19 | 218 | 16.1 | 20.9 | 0.00 | 0.00 | 0.00 | 59 | 1006.0 |
| 20260502091243 | 19 | 220 | 17.7 | 24.1 | 0.00 | 0.00 | 0.00 | 59 | 1006.0 |
| 20260502091043 | 19 | 217 | 17.7 | 24.1 | 0.00 | 0.00 | 0.00 | 59 | 1005.9 |
| 20260502090843 | 19 | 228 | 16.1 | 20.9 | 0.00 | 0.00 | 0.00 | 60 | 1005.9 |
| 20260502090642 | 19 | 221 | 14.5 | 20.9 | 0.00 | 0.00 | 0.00 | 60 | 1006.0 |
| 20260502090234 | 18 | 218 | 12.9 | 19.3 | 0.00 | 0.00 | 0.00 | 60 | 1006.0 |